"timestamp";"minute";"mean_h";"std_h";"mean_l";"std_l"
2019-10-31T23:00:56;1;-86.68028;13.963105;-110.55872;2.4385147
2019-10-31T23:05:56;1;-86.86787;13.95198;-110.71606;2.488026
2019-10-31T23:10:56;1;-86.73485;14.002949;-110.782036;2.3293128
2019-10-31T23:15:56;1;-86.61691;13.906852;-110.35478;2.4934616
2019-10-31T23:20:56;1;-86.31967;14.021722;-110.23087;2.5818636
2019-10-31T23:25:56;1;-86.46904;13.848772;-110.13542;2.4871953
2019-10-31T23:30:56;1;-86.65487;14.003964;-110.56275;2.5514734
2019-10-31T23:45:56;1;-86.75417;14.044947;-110.84554;2.4033778
2019-10-31T23:50:56;1;-86.698685;13.998678;-110.638756;2.5005107
2019-10-31T23:55:56;1;-86.701584;13.627541;-109.76999;2.5821505
2019-11-01T00:00:56;1;-86.52728;13.991475;-110.41969;2.5380213
2019-11-01T00:05:56;1;-86.46006;13.879093;-109.98736;2.6971664
2019-11-01T00:10:56;1;-86.33709;14.26692;-110.71124;2.6195073
2019-11-01T00:15:56;1;-86.27579;14.069868;-110.20607;2.744407
2019-11-01T00:20:56;1;-86.244316;14.140796;-110.35688;2.5596714
2019-11-01T00:25:56;1;-86.44973;14.166163;-110.684105;2.5518157
2019-11-01T00:30:56;1;-86.442665;14.394111;-111.13466;2.566112
2019-11-01T00:35:56;1;-86.36786;14.220994;-110.71358;2.5128047
2019-11-01T00:40:56;1;-86.25231;14.364228;-110.96705;2.4143302
2019-11-01T00:45:56;1;-86.06735;14.511019;-111.004135;2.5133095
2019-11-01T00:50:56;1;-86.17713;14.197591;-110.57753;2.4703443
2019-11-01T00:55:56;1;-85.98273;13.853281;-109.61466;2.4882338
2019-11-01T01:00:56;1;-85.96995;14.696418;-111.34129;2.4217658
2019-11-01T01:05:56;1;-86.455055;14.241828;-110.82165;2.5527782
2019-11-01T01:10:56;1;-86.35692;14.37417;-111.035065;2.5676875
2019-11-01T01:15:56;1;-86.15584;14.322984;-110.6889;2.5692077
2019-11-01T01:20:56;1;-86.02402;14.091278;-110.28617;2.4034176
2019-11-01T01:25:56;1;-86.06324;14.298236;-110.54376;2.655481
2019-11-01T01:30:56;1;-85.84042;14.078593;-109.786354;2.6236043
2019-11-01T01:35:56;1;-85.81912;14.179004;-110.15158;2.519343
2019-11-01T01:40:56;1;-85.77714;13.373043;-108.43862;2.4965718
2019-11-01T01:45:56;1;-85.7259;13.425801;-108.496956;2.4662864
2019-11-01T01:50:56;1;-85.99512;13.224591;-108.41671;2.4305325
2019-11-01T01:55:56;1;-86.00878;13.136096;-108.21704;2.5141933
2019-11-01T02:00:56;1;-85.797554;14.615248;-111.08334;2.3778996
2019-11-01T02:05:56;1;-85.77144;14.584353;-110.84645;2.5659676
2019-11-01T02:10:56;1;-85.7412;14.192357;-110.09903;2.493363
2019-11-01T02:15:56;1;-85.66274;14.151926;-109.832504;2.6346033
2019-11-01T02:20:56;1;-85.63484;13.957605;-109.46731;2.535787
2019-11-01T02:25:56;1;-85.614044;14.172512;-109.854256;2.4669871
2019-11-01T02:30:56;1;-84.579765;15.043656;-110.66896;2.477298
2019-11-01T02:35:56;1;-84.69167;14.607;-109.79771;2.5578835
2019-11-01T02:40:56;1;-84.3888;14.453099;-109.161606;2.5933328
2019-11-01T02:45:56;1;-84.51357;14.433484;-109.2006;2.6841524
2019-11-01T02:50:56;1;-84.54845;14.908749;-110.37695;2.4914942
2019-11-01T02:55:56;1;-84.59462;14.89229;-110.35707;2.4706824
2019-11-01T03:00:56;1;-84.659615;14.809106;-110.19611;2.5538278
2019-11-01T03:05:56;1;-84.66824;14.34754;-109.319405;2.471963
2019-11-01T03:10:56;1;-84.63559;14.707411;-110.09251;2.3841295
2019-11-01T03:15:56;1;-84.79402;14.459588;-109.63523;2.5922334
2019-11-01T03:20:56;1;-84.71563;14.833444;-110.390335;2.3985212
2019-11-01T03:25:56;1;-84.70483;14.3856125;-109.3903;2.587266
2019-11-01T03:30:56;1;-84.643425;14.280132;-109.26137;2.3590233
2019-11-01T03:35:56;1;-84.96359;13.730409;-108.432396;2.3633893
2019-11-01T03:40:56;1;-84.81705;13.922776;-108.56113;2.5467887
2019-11-01T03:45:56;1;-84.76895;14.258373;-109.22616;2.521337
2019-11-01T03:50:56;1;-84.840836;14.948755;-110.67;2.5029593
2019-11-01T03:55:56;1;-84.827614;14.426259;-109.606674;2.5502954
2019-11-01T04:00:56;1;-84.94963;14.283332;-109.34941;2.697738
2019-11-01T04:05:56;1;-84.961525;14.498824;-109.80023;2.6005387
2019-11-01T04:10:56;1;-85.43677;14.205706;-109.76308;2.5270653
2019-11-01T04:15:56;1;-85.37019;14.629617;-110.573265;2.5034335
2019-11-01T04:20:56;1;-85.74625;14.044837;-109.80172;2.4954026
2019-11-01T04:25:56;1;-85.895775;13.3675165;-108.60045;2.433192
2019-11-01T04:30:56;1;-86.06434;13.331995;-108.63619;2.4849777
2019-11-01T04:35:56;1;-85.935196;13.812909;-109.4308;2.570546
2019-11-01T04:40:56;1;-86.16398;13.4386635;-108.91006;2.6043336
2019-11-01T04:45:56;1;-86.16931;13.390524;-108.95436;2.4309254
2019-11-01T04:50:56;1;-86.96427;12.823258;-108.520386;2.5083385
2019-11-01T04:55:56;1;-90.525024;10.746154;-108.21228;2.5010614
2019-11-01T05:00:56;1;-91.85303;10.103458;-107.89324;2.5793839
2019-11-01T05:05:56;1;-91.324684;10.493025;-108.18279;2.5308173
2019-11-01T05:10:56;1;-92.79612;9.361963;-107.498665;2.3670998
2019-11-01T05:15:56;1;-93.10483;9.724003;-108.44021;2.514988
2019-11-01T05:20:56;1;-92.48123;9.931517;-108.32279;2.3749785
2019-11-01T05:25:56;1;-93.63941;9.2947;-108.10752;2.455876
2019-11-01T05:30:56;1;-94.16787;9.130709;-108.40507;2.403215
2019-11-01T05:35:56;1;-86.077805;13.250193;-108.69525;2.2173145
2019-11-01T05:40:56;1;-86.357956;13.1710205;-108.64229;2.4169822
2019-11-01T05:45:56;1;-86.41075;13.136776;-108.64288;2.4126751
2019-11-01T05:50:56;1;-86.62799;13.155616;-108.92232;2.4282663
2019-11-01T05:55:56;1;-97.98156;6.8383436;-108.576866;2.416517
2019-11-01T06:00:56;1;-95.04513;8.806219;-108.658394;2.330446
2019-11-01T06:05:56;1;-95.09403;8.411443;-107.8688;2.4227061
2019-11-01T06:10:56;1;-95.1564;8.790833;-108.61905;2.5489879
2019-11-01T06:15:56;1;-95.37385;8.582776;-108.559044;2.3809881
2019-11-01T06:20:56;1;-96.13786;8.141538;-108.441826;2.4198215
2019-11-01T06:25:56;1;-87.171814;13.142421;-109.436775;2.4289536
2019-11-01T06:30:56;1;-86.58441;13.229894;-109.068504;2.4510057
2019-11-01T06:35:56;1;-87.01704;12.980515;-108.913635;2.4972014
2019-11-01T06:40:56;1;-87.106636;13.302741;-109.80526;2.501418
2019-11-01T06:45:56;1;-86.6684;12.82144;-108.388885;2.5029483
2019-11-01T06:50:56;1;-84.34304;13.677394;-108.444695;2.4804678
2019-11-01T06:55:56;1;-84.58268;13.575926;-108.78031;2.422579
2019-11-01T07:00:56;1;-85.33635;13.172199;-108.47847;2.3953893
2019-11-01T07:05:56;1;-84.802414;13.334519;-108.32803;2.5865626
2019-11-01T07:10:56;1;-85.16413;13.516158;-109.10808;2.4894497
2019-11-01T07:15:56;1;-86.04291;13.286647;-109.2038;2.4278846
2019-11-01T07:20:56;1;-84.90931;13.522733;-109.01813;2.4542718
2019-11-01T07:25:56;1;-84.34095;13.610952;-108.28599;2.3709683
2019-11-01T07:30:56;1;-79.58535;16.32244;-108.49404;2.4020853
2019-11-01T07:35:56;1;-84.41298;13.902756;-108.43385;2.5242
2019-11-01T07:40:56;1;-85.93827;12.758347;-108.62908;2.4704509
2019-11-01T07:45:56;1;-86.50422;12.901935;-109.16594;2.489963
2019-11-01T07:50:56;1;-85.97276;12.898485;-108.71461;2.4264007
2019-11-01T07:55:56;1;-86.453804;12.603128;-108.24717;2.318986
2019-11-01T08:00:56;1;-85.41637;12.786845;-108.17011;2.3663049
2019-11-01T08:05:56;1;-85.43324;13.047871;-107.836266;2.4063373
2019-11-01T08:10:56;1;-87.03243;12.359264;-108.17536;2.3704562
2019-11-01T08:15:56;1;-83.44055;14.276721;-108.31153;2.6201925
2019-11-01T08:20:56;1;-86.50321;12.818394;-108.99779;2.3292184
2019-11-01T08:25:56;1;-86.10394;12.937333;-108.97708;2.319276
2019-11-01T08:30:56;1;-87.300514;12.861676;-109.28408;2.3847384
2019-11-01T08:35:56;1;-86.10613;13.416107;-109.81566;2.4599392
2019-11-01T08:40:56;1;-87.191574;13.199561;-109.94384;2.5133278
2019-11-01T08:45:56;1;-86.41144;13.112186;-108.973946;2.4450998
2019-11-01T08:50:56;1;-87.40001;12.535088;-108.843254;2.5650523
2019-11-01T08:55:56;1;-86.65423;12.818318;-108.787544;2.4359598
2019-11-01T09:00:56;1;-86.91997;12.763864;-108.79866;2.4755058
2019-11-01T09:05:56;1;-86.38691;13.042071;-109.11123;2.4828784
2019-11-01T09:10:56;1;-87.04912;12.662723;-108.868034;2.3276536
2019-11-01T09:15:56;1;-85.81934;13.300464;-109.17539;2.4089928
2019-11-01T09:20:56;1;-85.7941;13.085434;-108.69998;2.5245945
2019-11-01T09:25:56;1;-86.251274;12.955844;-108.95392;2.3940125
2019-11-01T09:30:56;1;-93.73736;9.243254;-108.74634;2.4000485
2019-11-01T09:35:56;1;-92.124985;9.872268;-108.00254;2.4553843
2019-11-01T09:40:56;1;-90.24383;10.903844;-108.19003;2.491699
2019-11-01T09:45:56;1;-88.13326;11.692034;-108.1092;2.551962
2019-11-01T09:50:56;1;-84.31738;14.233153;-109.551216;2.5358002
2019-11-01T09:55:56;1;-85.57376;12.974163;-108.29838;2.3891308
2019-11-01T10:00:56;1;-84.30068;14.366512;-109.32236;2.4016364
2019-11-01T10:05:56;1;-83.7678;14.717575;-109.53595;2.428696
2019-11-01T10:10:56;1;-82.780716;14.584521;-108.41536;2.3056254
2019-11-01T10:15:56;1;-85.01207;13.451898;-108.79368;2.5521686
2019-11-01T10:20:56;1;-84.5099;14.1701975;-109.147995;2.4564946
2019-11-01T10:25:56;1;-82.197845;15.284536;-109.1418;2.455672
2019-11-01T10:30:56;1;-82.67475;15.341797;-109.58879;2.533526
2019-11-01T10:35:56;1;-82.58573;15.386342;-109.52613;2.4060059
2019-11-01T10:40:56;1;-82.4141;14.323064;-108.21765;2.4141312
2019-11-01T10:45:56;1;-83.222;14.408459;-109.10423;2.3612757
2019-11-01T10:50:56;1;-83.552505;14.1557045;-108.45368;2.523457
2019-11-01T10:55:56;1;-81.96171;14.937148;-108.936485;2.339251
2019-11-01T11:00:56;1;-82.37663;14.777237;-108.79828;2.4292343
2019-11-01T11:05:56;1;-83.18484;14.583141;-109.16957;2.501205
2019-11-01T11:10:56;1;-82.19008;15.577412;-110.042885;2.520922
2019-11-01T11:15:56;1;-82.122536;14.858769;-108.89899;2.4048452
2019-11-01T11:20:56;1;-80.919365;16.215885;-109.932556;2.4119809
2019-11-01T11:25:56;1;-81.5431;16.101225;-110.004;2.4364488
2019-11-01T11:30:56;1;-81.791885;16.204693;-110.38491;2.4856713
2019-11-01T11:35:56;1;-81.71979;15.955306;-110.14848;2.5638094
2019-11-01T11:40:56;1;-81.16583;16.441416;-110.493866;2.307575
2019-11-01T11:45:56;1;-81.41494;16.315197;-110.47052;2.4369164
2019-11-01T11:50:56;1;-81.35293;16.333157;-110.35099;2.4336312
2019-11-01T11:55:56;1;-81.819336;16.024216;-109.98291;2.4583507
2019-11-01T12:00:56;1;-81.70454;16.011457;-109.82401;2.485336
2019-11-01T12:05:56;1;-85.009285;14.070235;-110.27531;2.4048064
2019-11-01T12:10:56;1;-81.71255;16.213507;-110.237564;2.545217
2019-11-01T12:15:56;1;-82.75266;14.965564;-109.73682;2.5114713
2019-11-01T12:20:56;1;-83.65553;14.828878;-109.43274;2.4907174
2019-11-01T12:25:56;1;-83.370186;14.621552;-109.283936;2.4625847
2019-11-01T12:30:56;1;-83.55295;14.562725;-109.45597;2.4831338
2019-11-01T12:35:56;1;-84.10542;14.537149;-109.8652;2.3421323
2019-11-01T12:40:56;1;-81.09815;16.397652;-110.458336;2.534683
2019-11-01T12:45:56;1;-81.52035;16.458004;-110.87969;2.5221214
2019-11-01T12:50:56;1;-82.01154;15.903267;-110.12336;2.4457881
2019-11-01T12:55:56;1;-81.068;15.878855;-110.041016;2.420081
2019-11-01T13:00:56;1;-84.01292;14.870649;-110.32489;2.4141312
2019-11-01T13:05:56;1;-77.99191;17.59199;-109.80211;2.4443502
2019-11-01T13:10:56;1;-84.61438;14.295144;-109.992836;2.3257642
2019-11-01T13:15:56;1;-85.41071;13.772425;-109.29727;2.563842
2019-11-01T13:20:56;1;-82.73234;14.399165;-108.65982;2.43282
2019-11-01T13:25:56;1;-83.1597;14.235146;-108.30576;2.4222345
2019-11-01T13:30:56;1;-79.63905;15.779464;-108.14347;2.4490921
2019-11-01T13:35:56;1;-84.04455;13.245668;-107.27789;2.480685
2019-11-01T13:40:56;1;-84.98077;12.956878;-107.5439;2.4701488
2019-11-01T13:45:56;1;-85.6206;13.210692;-108.42487;2.457525
2019-11-01T13:50:56;1;-84.37729;12.960413;-106.89972;2.5090806
2019-11-01T13:55:56;1;-84.04629;13.558254;-107.39916;2.4245522
2019-11-01T14:00:56;1;-81.334526;14.826762;-107.75379;2.500553
2019-11-01T14:05:56;1;-83.84843;13.708176;-107.695724;2.4792578
2019-11-01T14:10:56;1;-87.02711;12.272619;-108.452576;2.4582908
2019-11-01T14:15:56;1;-87.73641;12.149298;-108.44728;2.4697263
2019-11-01T14:20:56;1;-88.50496;11.795112;-108.17285;2.4669602
2019-11-01T14:25:56;1;-88.00666;12.046998;-108.47211;2.292526
2019-11-01T14:30:56;1;-88.55441;11.82918;-108.74549;2.341723
2019-11-01T14:35:56;1;-88.28994;12.167411;-109.04461;2.4526625
2019-11-01T14:40:56;1;-86.25267;12.990694;-109.02691;2.5982187
2019-11-01T14:45:56;1;-88.87267;11.922717;-109.20824;2.3516643
2019-11-01T14:50:56;1;-87.510796;12.320972;-109.00289;2.3557286
2019-11-01T14:55:56;1;-88.80162;11.880917;-108.752785;2.511881
2019-11-01T15:00:56;1;-88.43147;11.802739;-108.61971;2.2697687
2019-11-01T15:05:56;1;-88.540184;11.819634;-108.54417;2.506059
2019-11-01T15:10:56;1;-86.45657;12.815297;-108.3346;2.4645038
2019-11-01T15:15:56;1;-84.30563;14.088541;-108.87298;2.4367683
2019-11-01T15:20:56;1;-83.01338;13.375784;-107.39079;2.4890802
2019-11-01T15:25:56;1;-83.83749;13.585746;-108.13371;2.4583542
2019-11-01T15:30:56;1;-87.14137;13.346582;-109.9044;2.5387578
2019-11-01T15:35:56;1;-85.53575;14.030649;-110.15717;2.5308976
2019-11-01T15:40:56;1;-86.32356;13.731317;-109.861786;2.5969448
2019-11-01T15:45:56;1;-86.13644;13.803325;-110.18746;2.4054286
2019-11-01T15:50:56;1;-86.286095;13.853617;-110.03405;2.615786
2019-11-01T15:55:56;1;-86.66635;12.574923;-108.039185;2.3904254
2019-11-01T16:00:56;1;-85.831474;12.791601;-107.86485;2.4676263
2019-11-01T16:05:56;1;-88.04448;12.4449;-108.904305;2.4708855
2019-11-01T16:10:56;1;-86.72757;12.782208;-108.59181;2.40268
2019-11-01T16:15:56;1;-86.66386;13.005187;-108.58634;2.4877977
2019-11-01T16:20:56;1;-86.59073;13.032874;-108.56809;2.4654405
2019-11-01T16:25:56;1;-86.62861;13.248996;-109.03282;2.479507
2019-11-01T16:30:56;1;-86.6287;13.042036;-108.60091;2.5681605
2019-11-01T16:35:56;1;-86.63087;13.735259;-110.08296;2.4443693
2019-11-01T16:40:56;1;-86.5353;13.086119;-108.6461;2.4685996
2019-11-01T16:45:56;1;-86.636894;13.092557;-108.62675;2.5761683
2019-11-01T16:50:56;1;-86.46504;13.140458;-108.531425;2.6097436
2019-11-01T16:55:56;1;-86.450066;13.226749;-108.7471;2.5027926
2019-11-01T17:00:56;1;-86.31388;13.199101;-108.65296;2.4501882
2019-11-01T17:05:56;1;-86.35127;13.196754;-108.69588;2.440543
2019-11-01T17:10:56;1;-84.735565;13.9425335;-108.560356;2.5174901
2019-11-01T17:15:56;1;-86.381485;13.2116;-108.75583;2.5020304
2019-11-01T17:20:56;1;-86.55053;13.410004;-109.34377;2.433978
2019-11-01T17:25:56;1;-86.53455;13.371784;-109.27113;2.440709
2019-11-01T17:30:56;1;-86.59572;13.371227;-109.22245;2.55884
2019-11-01T17:35:56;1;-86.62064;13.268751;-109.10593;2.4118395
2019-11-01T17:40:56;1;-87.13993;13.082131;-109.26818;2.4822843
2019-11-01T17:45:56;1;-87.11995;13.065171;-109.21278;2.4096766
2019-11-01T17:50:56;1;-87.055275;13.109165;-109.246056;2.431222
2019-11-01T17:55:56;1;-87.05979;13.180982;-109.28959;2.5875456
2019-11-01T18:00:56;1;-87.167854;13.059665;-108.673004;2.747134
2019-11-01T18:05:56;1;-87.24977;13.123574;-109.4107;2.4740543
2019-11-01T18:10:56;1;-86.96297;13.162153;-109.18641;2.4920573
2019-11-01T18:15:56;1;-86.778915;13.251587;-109.26948;2.4529202
2019-11-01T18:20:56;1;-86.89549;13.372642;-109.49532;2.5566175
2019-11-01T18:25:56;1;-86.89953;13.099359;-109.034294;2.4243581
2019-11-01T18:30:56;1;-87.180374;13.124;-109.329704;2.4289205
2019-11-01T18:35:56;1;-86.78835;13.232352;-109.119606;2.5119991
2019-11-01T18:40:56;1;-86.804245;13.284467;-109.347244;2.4655437
2019-11-01T18:45:56;1;-86.78648;13.243081;-109.15251;2.5643091
2019-11-01T18:50:56;1;-86.50504;13.489801;-109.31904;2.6662548
2019-11-01T18:55:56;1;-86.598885;13.69713;-109.95561;2.4480786
2019-11-01T19:00:56;1;-86.92902;13.679896;-110.24428;2.5174239
2019-11-01T19:05:56;1;-86.855125;13.877746;-110.63184;2.3447165
2019-11-01T19:10:56;1;-86.90483;13.868994;-110.734024;2.3385603
2019-11-01T19:15:56;1;-86.66701;13.688109;-109.971466;2.536937
2019-11-01T19:20:56;1;-87.11734;12.900239;-108.98082;2.2875726
2019-11-01T19:25:56;1;-86.6695;13.074972;-108.75251;2.4828153
2019-11-01T19:30:56;1;-86.87993;12.967247;-108.795456;2.4257474
2019-11-01T19:35:56;1;-87.56073;12.842464;-109.07141;2.5516675
2019-11-01T19:40:56;1;-86.52547;13.167455;-108.84455;2.4197628
2019-11-01T19:45:56;1;-86.6168;13.140249;-108.87123;2.412654
2019-11-01T19:50:56;1;-86.603874;13.3333435;-109.18781;2.5021358
2019-11-01T19:55:56;1;-86.86073;13.02733;-108.907936;2.4290967
2019-11-01T20:00:56;1;-86.69882;13.334547;-109.193054;2.6011422
2019-11-01T20:05:56;1;-86.23344;13.452765;-109.109314;2.4223292
2019-11-01T20:10:56;1;-86.42753;13.235079;-108.941216;2.3984551
2019-11-01T20:15:56;1;-86.7093;13.163563;-109.02442;2.401988
2019-11-01T20:20:56;1;-86.799484;13.18154;-109.19211;2.3902788
2019-11-01T20:25:56;1;-86.812996;13.21332;-109.04606;2.5522912
2019-11-01T20:30:56;1;-86.705765;13.156981;-108.97754;2.4370162
2019-11-01T20:35:56;1;-86.62436;13.26967;-109.17833;2.3750136
2019-11-01T20:40:56;1;-86.59046;13.260529;-109.10758;2.3999047
2019-11-01T20:45:56;1;-86.971695;13.073945;-109.09672;2.4379294
2019-11-01T20:50:56;1;-86.74316;13.210388;-109.1097;2.4628615
2019-11-01T20:55:56;1;-87.30144;12.876619;-108.952156;2.4708872
2019-11-01T21:00:56;1;-86.962776;13.066752;-109.00911;2.4655507
2019-11-01T21:05:56;1;-86.97207;13.32555;-109.52467;2.4948962
2019-11-01T21:10:56;1;-87.52882;12.461765;-108.45375;2.3972623
2019-11-01T21:15:56;1;-84.3993;14.165404;-108.743;2.4288175
2019-11-01T21:20:56;1;-87.066986;13.028656;-108.99479;2.5155663
2019-11-01T21:25:56;1;-87.00562;13.067565;-109.16508;2.364931
2019-11-01T21:30:56;1;-86.98906;12.901332;-108.68718;2.4856713
2019-11-01T21:35:56;1;-86.77451;13.072626;-108.82852;2.549621
2019-11-01T21:40:56;1;-86.79618;13.020232;-108.83042;2.4353957
2019-11-01T21:45:56;1;-86.795654;12.994311;-108.7828;2.3574553
2019-11-01T21:50:56;1;-86.743546;13.12205;-108.86455;2.5411963
2019-11-01T21:55:56;1;-86.63853;13.074221;-108.71114;2.4696145
2019-11-01T22:00:56;1;-86.371284;13.534387;-109.36177;2.4903286
2019-11-01T22:05:56;1;-86.68816;13.076965;-108.78215;2.488093
2019-11-01T22:10:56;1;-85.90424;14.235009;-110.288315;2.4705253
2019-11-01T22:15:56;1;-85.97804;13.457329;-108.86055;2.4644382
2019-11-01T22:20:56;1;-84.77322;13.803815;-108.35054;2.4283953
2019-11-01T22:25:56;1;-84.73983;13.899735;-108.51645;2.3998585
2019-11-01T22:30:56;1;-86.60237;13.217749;-109.00928;2.4802923
2019-11-01T22:35:56;1;-86.093636;13.7135315;-109.48714;2.4281654
2019-11-01T22:40:56;1;-86.04214;13.979168;-109.88297;2.4939792
2019-11-01T22:45:56;1;-86.06385;14.001886;-110.04007;2.4529355
2019-11-01T22:50:56;1;-85.97651;13.884549;-109.752884;2.4325044
2019-11-01T22:55:56;1;-86.10143;13.828244;-109.81875;2.3400288
2019-11-01T23:00:56;1;-85.49407;14.630163;-110.74357;2.4211435
2019-11-01T23:05:56;1;-85.58353;13.654133;-108.90612;2.4050376
2019-11-01T23:10:56;1;-85.66296;13.564813;-108.78826;2.4207642
2019-11-01T23:15:56;1;-85.57705;14.535919;-110.55352;2.54664
2019-11-01T23:20:56;1;-85.63872;14.6758995;-110.9169;2.5151427
2019-11-01T23:25:56;1;-85.74139;14.329427;-110.35824;2.4425342
2019-11-01T23:30:56;1;-85.86319;14.58367;-110.89044;2.5904346
2019-11-01T23:35:56;1;-85.66314;14.710575;-110.93367;2.5749855
2019-11-01T23:40:56;1;-85.63303;14.7714;-111.15137;2.3688104
2019-11-01T23:45:56;1;-85.66406;14.617955;-110.896904;2.3866973
2019-11-01T23:50:56;1;-85.21053;14.879735;-110.874;2.4957392
2019-11-01T23:55:56;1;-84.88581;14.925165;-110.58213;2.5597174
2019-11-02T00:00:56;1;-85.10546;15.163146;-111.30558;2.596697
2019-11-02T00:05:56;1;-85.071465;14.742782;-110.45801;2.5791445
2019-11-02T00:10:56;1;-85.18805;15.076712;-111.24932;2.5146515
2019-11-02T00:15:56;1;-85.09521;15.115143;-111.223656;2.5648677
2019-11-02T00:20:56;1;-85.018105;15.158486;-111.26748;2.549896
2019-11-02T00:25:56;1;-85.21764;14.998988;-111.19961;2.429685
2019-11-02T00:30:56;1;-85.18044;14.788018;-110.699394;2.5543895
2019-11-02T00:35:56;1;-85.32548;15.019761;-111.24538;2.618425
2019-11-02T00:40:56;1;-85.284164;14.878981;-110.95045;2.5579967
2019-11-02T00:45:56;1;-85.36286;14.75426;-110.813736;2.4688234
2019-11-02T00:50:56;1;-85.28909;14.950962;-111.124176;2.5649602
2019-11-02T00:55:56;1;-84.74135;15.239419;-111.12589;2.5579667
2019-11-02T01:00:56;1;-84.95785;15.133293;-111.114456;2.53475
2019-11-02T01:05:56;1;-84.88654;14.972205;-110.76347;2.5848267
2019-11-02T01:10:56;1;-84.908485;14.904519;-110.75523;2.4168992
2019-11-02T01:15:56;1;-84.9766;15.156239;-111.03362;2.715764
2019-11-02T01:20:56;1;-84.95178;15.019059;-110.97206;2.4822507
2019-11-02T01:25:56;1;-84.812485;15.263438;-111.351685;2.4340374
2019-11-02T01:30:56;1;-84.921326;15.146196;-111.0169;2.5871348
2019-11-02T01:35:56;1;-84.84941;15.173409;-111.084694;2.5970895
2019-11-02T01:40:56;1;-84.74855;15.029737;-110.76069;2.5618863
2019-11-02T01:45:56;1;-84.734055;15.107606;-110.852425;2.4974108
2019-11-02T01:50:56;1;-84.75659;14.686455;-109.91423;2.6717675
2019-11-02T01:55:56;1;-84.025604;15.190416;-110.39876;2.4298642
2019-11-02T02:00:56;1;-83.78002;15.358471;-110.430466;2.4851875
2019-11-02T02:05:56;1;-83.979706;15.619588;-111.20311;2.5074146
2019-11-02T02:10:56;1;-84.190796;15.244569;-110.614456;2.5133235
2019-11-02T02:15:56;1;-84.10807;15.258823;-110.500984;2.5913997
2019-11-02T02:20:56;1;-84.817604;14.362518;-109.3617;2.6590319
2019-11-02T02:25:56;1;-84.695755;15.321691;-111.382324;2.4128182
2019-11-02T02:30:56;1;-85.50914;14.615554;-110.69547;2.472238
2019-11-02T02:35:56;1;-84.695145;14.716791;-110.12266;2.4698377
2019-11-02T02:40:56;1;-84.129196;14.839208;-109.81956;2.500657
2019-11-02T02:45:56;1;-84.203186;14.788378;-109.87454;2.3110871
2019-11-02T02:50:56;1;-84.17455;14.666758;-109.415665;2.4624271
2019-11-02T02:55:56;1;-84.181786;15.510938;-111.07602;2.58176
2019-11-02T03:00:56;1;-84.31427;15.11417;-110.50051;2.5408757
2019-11-02T03:05:56;1;-84.52887;14.941564;-110.22111;2.6076937
2019-11-02T03:10:56;1;-84.44935;14.791708;-109.89189;2.5375903
2019-11-02T03:15:56;1;-84.45707;14.415826;-109.21854;2.4802525
2019-11-02T03:20:56;1;-84.44308;14.827943;-110.060234;2.4799585
2019-11-02T03:25:56;1;-84.43791;15.336365;-111.03471;2.5821052
2019-11-02T03:30:56;1;-84.2612;15.386063;-110.89546;2.5932794
2019-11-02T03:35:56;1;-84.14975;15.314824;-110.67415;2.5254211
2019-11-02T03:40:56;1;-83.7006;15.499739;-110.67939;2.5147727
2019-11-02T03:45:56;1;-83.90281;15.54733;-110.88063;2.5714843
2019-11-02T03:50:56;1;-83.72867;15.66469;-111.048965;2.5062025
2019-11-02T03:55:56;1;-83.76997;15.554298;-110.86552;2.472619
2019-11-02T04:00:56;1;-83.20079;15.281617;-109.751;2.4822216
2019-11-02T04:05:56;1;-83.991486;15.14693;-110.18692;2.5854754
2019-11-02T04:10:56;1;-83.9602;15.239996;-110.35179;2.5288088
2019-11-02T04:15:56;1;-84.4392;14.646254;-109.627525;2.4885066
2019-11-02T04:20:56;1;-84.65895;14.564963;-109.69544;2.5061247
2019-11-02T04:25:56;1;-84.8904;14.164098;-109.07713;2.5316856
2019-11-02T04:30:56;1;-84.32805;14.219475;-108.72826;2.50827
2019-11-02T04:35:56;1;-84.40424;14.206981;-108.7726;2.405616
2019-11-02T04:40:56;1;-84.694725;14.531761;-109.7887;2.357037
2019-11-02T04:45:56;1;-84.69714;13.975517;-108.65592;2.377868
2019-11-02T04:50:56;1;-84.689316;13.975877;-108.60481;2.4488416
2019-11-02T04:55:56;1;-84.69036;13.758504;-108.104065;2.5754948
2019-11-02T05:00:56;1;-85.24787;14.1455965;-109.43444;2.6027787
2019-11-02T05:05:56;1;-85.349884;13.958641;-109.13368;2.5175726
2019-11-02T05:10:56;1;-85.282196;14.242019;-109.73812;2.4551265
2019-11-02T05:15:56;1;-85.376114;14.5281515;-110.458984;2.3590894
2019-11-02T05:20:56;1;-85.277954;13.243362;-107.59788;2.5587738
2019-11-02T05:25:56;1;-84.917885;13.277197;-107.46988;2.3957734
2019-11-02T05:30:56;1;-85.616066;13.384861;-108.254135;2.5679417
2019-11-02T05:35:56;1;-84.66578;13.943512;-108.57952;2.3737552
2019-11-02T05:40:56;1;-84.68143;13.995719;-108.71728;2.3500412
2019-11-02T05:45:56;1;-84.74662;13.916957;-108.54956;2.3759131
2019-11-02T05:50:56;1;-84.699875;13.814326;-108.29207;2.4581296
2019-11-02T05:55:56;1;-84.75494;13.960174;-108.62665;2.4683268
2019-11-02T06:00:56;1;-85.321205;13.939505;-109.08954;2.5393262
2019-11-02T06:05:56;1;-85.42029;13.505057;-108.467896;2.3725402
2019-11-02T06:10:56;1;-85.54949;13.5091505;-108.59739;2.3933425
2019-11-02T06:15:56;1;-85.75682;13.384007;-108.51406;2.4520884
2019-11-02T06:20:56;1;-85.84823;13.521037;-108.85017;2.4406955
2019-11-02T06:25:56;1;-85.839165;13.442612;-108.68352;2.410326
2019-11-02T06:30:56;1;-86.02719;13.31294;-108.64818;2.4615011
2019-11-02T06:35:56;1;-85.480446;13.565804;-108.63328;2.418266
2019-11-02T06:40:56;1;-85.23921;13.715958;-108.76161;2.381724
2019-11-02T06:45:56;1;-84.26783;13.935485;-108.50433;2.4851577